Find Skylink-2

NORAD ID: 62672 Int'l Des: NNA 2025-009 Owner: HELLO Country: TR operational
LEOCIRCULARRETROGRADESSO

リアルタイム位置

3D地球を読み込み中...

Skylink-2について

説明を読み込み中...

次回通過

Passes for default location (London). Set your location on the main map for personalized predictions.

高度履歴

Loading altitude history...

軌道要素

1 62672U 25009BR 26107.17990419 .00002642 00000-0 11714-3 0 9996
2 62672 97.3966 187.2250 0004849 169.8818 190.2517 15.22462253127104
Epoch: Apr 17, 2026 • Age: 14 hours

現在のステータス

高度 503.8 km
速度 7.61 km/s
衛星直下点 10.09°N, 62.21°E
打ち上げ日 Jan 14, 2025
運用期間 1.2 years
タイプ other

技術仕様

分類 Payload
質量 0.75 kg
乾燥質量 0.75 kg
総質量 0.75 kg
長さ 0.15 m
直径 0.05 m
スパン 0.35 m
形状 Box+ 2 pan
製造者 HELLO
バスタイプ PocketQube 3P
フェーズステータス In Orbit
所有者/国 HELLO/TR

Most Searched